[[{"header":{"parameterUnit":"m.s-1","parameterCategory":1,"la1":30.2991,"la2":30.254,"lo1":-89.0895,"lo2":-89.0444,"dy":0.0017,"dx":0.0017,"nx":28,"ny":28,"refTime":"2024-08-13T21:00:00:Z","depth":0,"parameterNumber":2,"parameterNumberName":"U-component_of_WINDS"},"data":[0,0,0,0,0,0,0,0,0,0,0,0,0,0,0,0,0,0,0,0,0,0,0,0,0,0,0,0,0,0,0,0,0,0,0,0,0,0,0,0,0,0,0,0,0,0,0,0,0,0,0,0,0,0,0,0,0,0,2.491,2.491,0,2.4917,2.4917,2.4917,2.493,2.493,2.493,2.493,2.4931,2.4931,2.4931,0,0,0,0,0,0,0,0,0,0,0,0,0,2.4904,2.4904,2.491,2.491,2.491,2.4917,2.4917,2.4917,2.493,2.493,2.493,2.493,2.4931,2.4931,2.493,0,0,0,0,0,0,0,0,0,0,0,0,0,2.4908,2.4904,2.491,2.4918,2.4918,2.4917,2.4917,2.4917,2.4929,2.493,2.493,2.4931,2.4931,2.4931,2.493,2.492,0,0,2.4929,2.4929,0,0,0,0,0,0,0,0,2.4908,2.4909,2.4916,2.4917,2.4918,2.4923,2.4915,2.4918,2.4929,2.4925,2.493,2.4931,2.4928,2.4928,2.4928,2.492,2.492,2.4929,2.4929,2.4929,2.4929,0,0,0,0,0,0,0,2.4908,2.4908,2.4913,2.4917,2.4917,2.4919,2.492,2.4916,2.4924,2.4925,2.4926,2.4927,2.4928,2.4928,2.4928,2.492,2.4929,2.4929,2.4929,2.4929,2.4907,2.4907,0,0,0,0,0,0,2.4907,2.4908,2.4912,2.4913,2.4914,2.4919,2.492,2.4921,2.4924,2.4925,2.4927,2.4928,2.4928,2.4928,2.4928,2.4918,2.4929,2.4929,2.4928,2.4908,2.4907,2.4907,0,0,0,0,0,0,2.4907,2.4907,2.4912,2.4911,2.4912,2.4919,2.4919,2.4921,2.4921,2.4925,2.4926,2.4926,2.4929,2.4928,2.4923,2.4918,2.4929,2.4928,2.4908,2.4907,2.4907,2.4897,0,0,0,0,0,0,2.4907,2.4907,2.4904,2.4911,2.4912,2.4909,2.4919,2.4921,2.4921,2.4922,2.4924,2.4925,2.4929,2.4924,2.4923,2.4918,2.4928,2.4908,2.4908,2.4907,2.4897,2.4896,2.4894,0,0,0,0,0,2.4907,2.4899,2.4904,2.4905,2.4908,2.4908,2.4909,2.4915,2.492,2.4917,2.492,2.4925,2.4919,2.4923,2.4922,2.4917,2.4909,2.4908,2.4907,2.4898,2.4896,2.4894,0,0,0,0,0,0,2.489,2.49,2.4906,2.4901,2.4904,2.491,2.4906,2.4912,2.4912,2.4913,2.4919,2.492,2.4914,2.4914,2.4919,2.4908,2.4915,2.4914,2.4908,2.4906,2.4905,2.4904,2.4928,0,0,0,0,0,2.4886,2.4887,2.4895,2.489,2.4891,2.4899,2.4899,2.4904,2.4906,2.4907,2.491,2.491,2.4909,2.4907,2.4906,2.4898,2.4899,2.4894,2.4892,2.4891,2.489,2.4887,2.4885,2.4904,2.4904,2.4904,0,0,2.4877,2.4883,2.4882,2.4887,2.489,2.4889,2.4899,2.4898,2.4897,2.4906,2.4902,2.4904,2.4905,2.4899,2.4897,2.49,2.4885,2.489,2.4889,2.4888,2.4886,2.4884,2.4883,2.4903,2.4904,2.4904,0,0,2.4861,2.4865,2.4863,2.4866,2.4872,2.4877,2.4876,2.4883,2.4885,2.4882,2.4889,2.4888,2.4884,2.4886,2.4886,2.4873,2.4878,2.4872,2.4864,2.4861,2.486,2.4858,2.4855,2.4853,2.4871,2.4871,2.4871,0,2.4849,2.485,2.486,2.4859,2.4861,2.4872,2.4868,2.4871,2.4874,2.4875,2.4879,2.4877,2.4878,2.4873,2.4871,2.487,2.4869,2.4872,2.4859,2.4858,2.4857,2.4854,2.4852,2.4871,2.4871,2.4871,2.4871,0,2.4835,2.4836,2.4833,2.484,2.4841,2.4838,2.4847,2.4847,2.4852,2.4857,2.4854,2.4857,2.4857,2.4856,2.486,2.4852,2.4854,2.4859,2.4865,2.4855,2.4852,2.485,2.487,2.487,2.487,2.487,0,0,2.4808,2.4822,2.482,2.4824,2.4832,2.4832,2.4831,2.4833,2.4834,2.4836,2.4835,2.4833,2.4838,2.4839,2.4843,2.484,2.4832,2.4845,2.4846,2.4843,2.4824,2.4821,2.4819,2.4835,2.4835,2.4834,2.4824,0,2.4794,2.4794,2.4804,2.48,2.4802,2.4813,2.4811,2.4815,2.482,2.4821,2.4825,2.4824,2.4831,2.4831,2.4829,2.4833,2.4828,2.4834,2.4833,2.4833,2.4833,2.4817,2.4814,2.4804,2.4823,2.4823,2.4823,0,2.4777,2.4782,2.478,2.479,2.4791,2.479,2.4794,2.4795,2.48,2.4803,2.4805,2.4811,2.4809,2.4816,2.4814,2.4818,2.4818,2.482,2.482,2.482,2.4827,2.4818,2.4801,2.48,2.4821,2.4821,2.4821,0,2.4759,2.4764,2.4764,2.4767,2.4778,2.4778,2.4782,2.4788,2.4789,2.4792,2.4794,2.4795,2.4796,2.4797,2.4803,2.4808,2.4801,2.4808,2.4803,2.4803,2.4801,2.4801,2.4784,2.48,2.4801,2.4801,2.4801,0,2.4742,2.4741,2.4757,2.4757,2.4755,2.4766,2.4764,2.4769,2.4774,2.4775,2.4783,2.4783,2.4792,2.4792,2.4797,2.4795,2.4795,2.4797,2.4798,2.4797,2.4797,2.4797,2.4798,2.48,2.48,2.48,2.48,0,2.4721,2.4732,2.4733,2.4745,2.4748,2.4746,2.4755,2.4755,2.4762,2.4762,2.4763,2.4772,2.4773,2.478,2.4782,2.4785,2.4781,2.4784,2.478,2.4781,2.4777,2.4778,2.476,2.4759,2.4775,2.4775,2.4775,0,2.471,2.471,2.4723,2.4725,2.473,2.4733,2.4735,2.4746,2.4748,2.4755,2.4754,2.4757,2.476,2.4761,2.4767,2.4769,2.4772,2.4766,2.4772,2.4771,2.4772,2.4773,2.4773,2.4764,2.4764,2.4764,2.4763,0,2.469,2.4696,2.4701,2.4708,2.4712,2.4717,2.4722,2.4723,2.4735,2.4737,2.474,2.4743,2.4747,2.4749,2.4753,2.4755,2.4761,2.4762,2.4761,2.4759,2.4758,2.4759,2.4777,2.4762,2.4762,2.4762,2.4762,2.4762,2.4675,2.4676,2.4686,2.4691,2.4697,2.4702,2.4704,2.4711,2.4715,2.472,2.4726,2.4729,2.4734,2.474,2.4743,2.4744,2.4747,2.4746,2.4746,2.4745,2.4745,2.4758,2.4745,2.4745,2.4745,2.4745,2.4745,0,2.4656,2.4664,2.4668,2.4678,2.4682,2.469,2.4697,2.4699,2.4702,2.4708,2.4712,2.4716,2.4719,2.4726,2.4729,2.4729,2.4732,2.473,2.473,2.4731,2.4741,2.4742,2.4728,2.4728,2.4728,2.4728,2.4728,2.4728,2.4647,2.4649,2.4657,2.4662,2.4669,2.4674,2.4678,2.4683,2.4688,2.4693,2.4696,2.4702,2.4708,2.4713,2.4716,2.4718,2.4719,2.4716,2.4718,2.4728,2.473,2.4731,2.4732,2.4716,2.4716,2.4708,2.4707,2.4707]},{"header":{"parameterUnit":"m.s-1","parameterCategory":1,"la1":30.2991,"la2":30.254,"lo1":-89.0895,"lo2":-89.0444,"dy":0.0017,"dx":0.0017,"nx":28,"ny":28,"refTime":"2024-08-13T21:00:00:Z","depth":0,"parameterNumber":3,"parameterNumberName":"V-component_of_WINDS"},"data":[0,0,0,0,0,0,0,0,0,0,0,0,0,0,0,0,0,0,0,0,0,0,0,0,0,0,0,0,0,0,0,0,0,0,0,0,0,0,0,0,0,0,0,0,0,0,0,0,0,0,0,0,0,0,0,0,0,0,-2.5218,-2.5212,0,-2.4655,-2.4648,-2.4642,-2.4326,-2.4325,-2.4324,-2.4324,-2.3728,-2.3714,-2.3699,0,0,0,0,0,0,0,0,0,0,0,0,0,-2.6008,-2.5995,-2.5219,-2.5212,-2.5205,-2.4656,-2.4648,-2.464,-2.4326,-2.4325,-2.4324,-2.4323,-2.3733,-2.3716,-2.3698,0,0,0,0,0,0,0,0,0,0,0,0,0,-2.5576,-2.5991,-2.522,-2.4983,-2.4956,-2.4657,-2.4648,-2.4638,-2.4327,-2.4325,-2.4324,-2.4323,-2.3739,-2.3717,-2.3695,-2.3584,0,0,-2.3627,-2.3617,0,0,0,0,0,0,0,0,-2.5601,-2.5548,-2.5024,-2.4998,-2.4968,-2.456,-2.4707,-2.4284,-2.4327,-2.4565,-2.4324,-2.4322,-2.4005,-2.3961,-2.3857,-2.3556,-2.3531,-2.3625,-2.3611,-2.3601,-2.3595,0,0,0,0,0,0,0,-2.5632,-2.557,-2.4995,-2.5017,-2.4982,-2.4899,-2.4836,-2.4626,-2.4299,-2.4544,-2.452,-2.4458,-2.3989,-2.388,-2.3841,-2.3522,-2.3625,-2.3605,-2.3591,-2.3583,-2.31,-2.3101,0,0,0,0,0,0,-2.5702,-2.5597,-2.5013,-2.4978,-2.5288,-2.4886,-2.4815,-2.4692,-2.4301,-2.424,-2.446,-2.4446,-2.3919,-2.3868,-2.3819,-2.3662,-2.3602,-2.358,-2.3568,-2.31,-2.31,-2.3101,0,0,0,0,0,0,-2.572,-2.5653,-2.5035,-2.5281,-2.5196,-2.4874,-2.4737,-2.4681,-2.4572,-2.4237,-2.4176,-2.441,-2.3916,-2.385,-2.3646,-2.3637,-2.357,-2.355,-2.3099,-2.31,-2.3101,-2.3349,0,0,0,0,0,0,-2.5744,-2.5661,-2.5619,-2.5283,-2.5184,-2.4878,-2.4737,-2.4671,-2.4536,-2.4512,-2.4174,-2.4116,-2.391,-2.3681,-2.3624,-2.3605,-2.3532,-2.3098,-2.3099,-2.31,-2.334,-2.3359,-2.3374,0,0,0,0,0,-2.5773,-2.5708,-2.5619,-2.555,-2.5126,-2.4878,-2.4821,-2.459,-2.4537,-2.4489,-2.4275,-2.4127,-2.3649,-2.3663,-2.3595,-2.357,-2.3097,-2.3099,-2.31,-2.3333,-2.3355,-2.3374,0,0,0,0,0,0,-2.6045,-2.5659,-2.5556,-2.5381,-2.5166,-2.4826,-2.4758,-2.4621,-2.4411,-2.4396,-2.4113,-2.4039,-2.3862,-2.3694,-2.3718,-2.3441,-2.3357,-2.3345,-2.3557,-2.3575,-2.3592,-2.3634,-2.3514,0,0,0,0,0,-2.6087,-2.5923,-2.5592,-2.5469,-2.5367,-2.5083,-2.4966,-2.4807,-2.457,-2.4475,-2.4245,-2.4016,-2.3813,-2.3685,-2.348,-2.3316,-2.3236,-2.3265,-2.3282,-2.3298,-2.3289,-2.3188,-2.3197,-2.3106,-2.3106,-2.3106,0,0,-2.6166,-2.5935,-2.5847,-2.5518,-2.5332,-2.5164,-2.5007,-2.4835,-2.4706,-2.4446,-2.424,-2.4065,-2.3789,-2.3606,-2.3512,-2.346,-2.3298,-2.33,-2.3315,-2.3296,-2.3191,-2.32,-2.3208,-2.3107,-2.3107,-2.3107,0,0,-2.6225,-2.6037,-2.5913,-2.5732,-2.5456,-2.5267,-2.5239,-2.4919,-2.4794,-2.4585,-2.4387,-2.4227,-2.3885,-2.3697,-2.3557,-2.355,-2.3405,-2.3491,-2.3578,-2.3483,-2.349,-2.3495,-2.349,-2.3492,-2.3484,-2.3485,-2.3485,0,-2.6358,-2.6102,-2.5865,-2.5706,-2.5566,-2.5331,-2.5201,-2.5034,-2.4703,-2.4609,-2.4558,-2.4125,-2.3923,-2.3691,-2.3691,-2.3586,-2.354,-2.3526,-2.351,-2.3512,-2.3513,-2.3505,-2.3504,-2.3497,-2.3496,-2.3494,-2.3493,0,-2.6277,-2.6103,-2.6036,-2.573,-2.5581,-2.5438,-2.5175,-2.5052,-2.4908,-2.4725,-2.4513,-2.4264,-2.4005,-2.3939,-2.3793,-2.3685,-2.3662,-2.3565,-2.3473,-2.3538,-2.3525,-2.352,-2.3515,-2.351,-2.3507,-2.3504,0,0,-2.6487,-2.6057,-2.6035,-2.5894,-2.5573,-2.543,-2.5276,-2.5028,-2.4928,-2.4708,-2.4567,-2.4286,-2.4195,-2.4036,-2.3867,-2.3785,-2.3793,-2.3695,-2.3685,-2.372,-2.3657,-2.3731,-2.3731,-2.3698,-2.3696,-2.3695,-2.3679,0,-2.6498,-2.6215,-2.6,-2.5795,-2.563,-2.5406,-2.527,-2.5056,-2.4882,-2.4711,-2.4514,-2.4319,-2.4215,-2.4117,-2.4026,-2.3813,-2.3776,-2.3811,-2.3559,-2.3553,-2.3633,-2.3725,-2.3801,-2.3798,-2.3673,-2.3672,-2.3671,0,-2.6472,-2.6268,-2.6051,-2.5749,-2.5671,-2.5554,-2.531,-2.5152,-2.4904,-2.4782,-2.4609,-2.4436,-2.4257,-2.4188,-2.3935,-2.3964,-2.3848,-2.3728,-2.3722,-2.3686,-2.3614,-2.3689,-2.3792,-2.3791,-2.3662,-2.3662,-2.3663,0,-2.6646,-2.6315,-2.6142,-2.6028,-2.5672,-2.5595,-2.5442,-2.5193,-2.5059,-2.4844,-2.4753,-2.452,-2.4391,-2.4212,-2.3979,-2.395,-2.375,-2.366,-2.3639,-2.3645,-2.3603,-2.3609,-2.3687,-2.3536,-2.3536,-2.3536,-2.3536,0,-2.6678,-2.6553,-2.6215,-2.6109,-2.5961,-2.5712,-2.5571,-2.5398,-2.518,-2.5031,-2.4822,-2.4686,-2.4389,-2.4216,-2.4032,-2.385,-2.3794,-2.3686,-2.3638,-2.3703,-2.3717,-2.362,-2.3613,-2.3536,-2.3536,-2.3536,-2.3536,0,-2.6845,-2.6614,-2.641,-2.6093,-2.601,-2.5915,-2.564,-2.5525,-2.5342,-2.5157,-2.5099,-2.4807,-2.4593,-2.4345,-2.4047,-2.3924,-2.3755,-2.3686,-2.3841,-2.3813,-2.3805,-2.3809,-2.3821,-2.3809,-2.3673,-2.3674,-2.3676,0,-2.688,-2.6779,-2.6453,-2.6343,-2.6198,-2.6021,-2.5885,-2.5637,-2.5502,-2.5214,-2.5134,-2.4906,-2.4709,-2.4377,-2.4135,-2.3906,-2.3828,-2.3848,-2.3791,-2.386,-2.3824,-2.3832,-2.382,-2.3863,-2.3866,-2.3868,-2.387,0,-2.6965,-2.6857,-2.6672,-2.6449,-2.6294,-2.6104,-2.5904,-2.5824,-2.5534,-2.5393,-2.5175,-2.5024,-2.4724,-2.4498,-2.4241,-2.4076,-2.3923,-2.3891,-2.3873,-2.3936,-2.403,-2.3977,-2.3881,-2.389,-2.3888,-2.3887,-2.3886,-2.3885,-2.7063,-2.6963,-2.672,-2.6521,-2.6347,-2.6166,-2.6044,-2.5848,-2.5664,-2.5404,-2.5268,-2.5052,-2.4805,-2.4444,-2.4286,-2.4109,-2.4057,-2.4033,-2.4025,-2.4022,-2.404,-2.4063,-2.4062,-2.4061,-2.406,-2.4059,-2.4058,0,-2.7135,-2.6969,-2.679,-2.6521,-2.6364,-2.6243,-2.6016,-2.5891,-2.5706,-2.5492,-2.5306,-2.5055,-2.4836,-2.458,-2.4343,-2.4252,-2.4176,-2.4197,-2.4199,-2.4164,-2.4101,-2.4139,-2.4263,-2.4263,-2.4263,-2.4263,-2.4263,-2.4263,-2.7154,-2.698,-2.6844,-2.6579,-2.6411,-2.6204,-2.6085,-2.5915,-2.5743,-2.5476,-2.5295,-2.5133,-2.4899,-2.4645,-2.4438,-2.4367,-2.4288,-2.4331,-2.424,-2.4185,-2.4168,-2.4151,-2.4185,-2.4317,-2.4317,-2.4315,-2.4316,-2.4316]}]]